Year,Month,Day,Hour,Minute,Value (Times are PST for temperature in C)
2007,06,20,00,00,15.30
2007,06,20,00,01,15.30
2007,06,20,00,02,15.30
2007,06,20,00,03,15.30
2007,06,20,00,04,15.30
2007,06,20,00,05,15.30
2007,06,20,00,06,15.20
2007,06,20,00,07,15.20
2007,06,20,00,08,15.20
2007,06,20,00,09,15.20
2007,06,20,00,10,15.20
2007,06,20,00,11,15.20
2007,06,20,00,12,15.20
2007,06,20,00,13,15.20
2007,06,20,00,14,15.10
2007,06,20,00,15,15.10
2007,06,20,00,16,15.20
2007,06,20,00,17,15.20
2007,06,20,00,18,15.20
2007,06,20,00,19,15.20
2007,06,20,00,20,15.20
2007,06,20,00,21,15.20
2007,06,20,00,22,15.20
2007,06,20,00,23,15.20
2007,06,20,00,24,15.20
2007,06,20,00,25,15.20
2007,06,20,00,26,15.20
2007,06,20,00,27,15.20
2007,06,20,00,28,15.20
2007,06,20,00,29,15.20
2007,06,20,00,30,15.20
2007,06,20,00,31,15.30
2007,06,20,00,32,15.30
2007,06,20,00,33,15.30
2007,06,20,00,34,15.30
2007,06,20,00,35,15.30
2007,06,20,00,36,15.30
2007,06,20,00,37,15.30
2007,06,20,00,38,15.30
2007,06,20,00,39,15.30
2007,06,20,00,40,15.30
2007,06,20,00,41,15.30
2007,06,20,00,42,15.30
2007,06,20,00,43,15.30
2007,06,20,00,44,15.30
2007,06,20,00,45,15.30
2007,06,20,00,46,15.30
2007,06,20,00,47,15.30
2007,06,20,00,48,15.30
2007,06,20,00,49,15.30
2007,06,20,00,50,15.30
2007,06,20,00,51,15.30
2007,06,20,00,52,15.30
2007,06,20,00,53,15.30
2007,06,20,00,54,15.30
2007,06,20,00,55,15.30
2007,06,20,00,56,15.30
2007,06,20,00,57,15.30
2007,06,20,00,58,15.20
2007,06,20,00,59,15.20
2007,06,20,01,00,15.20
2007,06,20,01,01,15.20
2007,06,20,01,02,15.10
2007,06,20,01,03,15.10
2007,06,20,01,04,15.10
2007,06,20,01,05,15.10
2007,06,20,01,06,15.10
2007,06,20,01,07,15.10
2007,06,20,01,08,15.10
2007,06,20,01,09,15.10
2007,06,20,01,10,15.10
2007,06,20,01,11,15.10
2007,06,20,01,12,15.10
2007,06,20,01,13,15.10
2007,06,20,01,14,15.10
2007,06,20,01,15,15.10
2007,06,20,01,16,15.10
2007,06,20,01,17,15.00
2007,06,20,01,18,15.00
2007,06,20,01,19,15.00
2007,06,20,01,20,15.00
2007,06,20,01,21,15.00
2007,06,20,01,22,15.00
2007,06,20,01,23,14.90
2007,06,20,01,24,14.90
2007,06,20,01,25,14.90
2007,06,20,01,26,14.90
2007,06,20,01,27,14.90
2007,06,20,01,28,14.90
2007,06,20,01,29,14.90
2007,06,20,01,30,14.90
2007,06,20,01,31,14.80
2007,06,20,01,32,14.80
2007,06,20,01,33,14.80
2007,06,20,01,34,14.80
2007,06,20,01,35,14.80
2007,06,20,01,36,14.80
2007,06,20,01,37,14.80
2007,06,20,01,38,14.80
2007,06,20,01,39,14.80
2007,06,20,01,40,14.80
2007,06,20,01,41,14.80
2007,06,20,01,42,14.80
2007,06,20,01,43,14.80
2007,06,20,01,44,14.80
2007,06,20,01,45,14.80
2007,06,20,01,46,14.80
2007,06,20,01,47,14.70
2007,06,20,01,48,14.70
2007,06,20,01,49,14.70
2007,06,20,01,50,14.70
2007,06,20,01,51,14.70
2007,06,20,01,52,14.70
2007,06,20,01,53,14.70
2007,06,20,01,54,14.70
2007,06,20,01,55,14.60
2007,06,20,01,56,14.60
2007,06,20,01,57,14.60
2007,06,20,01,58,14.70
2007,06,20,01,59,14.70
2007,06,20,02,00,14.70
2007,06,20,02,01,14.70
2007,06,20,02,02,14.70
2007,06,20,02,03,14.70
2007,06,20,02,04,14.70
2007,06,20,02,05,14.70
2007,06,20,02,06,14.70
2007,06,20,02,07,14.70
2007,06,20,02,08,14.60
2007,06,20,02,09,14.60
2007,06,20,02,10,14.60
2007,06,20,02,11,14.50
2007,06,20,02,12,14.50
2007,06,20,02,13,14.50
2007,06,20,02,14,14.40
2007,06,20,02,15,14.40
2007,06,20,02,16,14.30
2007,06,20,02,17,14.30
2007,06,20,02,18,14.20
2007,06,20,02,19,14.20
2007,06,20,02,20,14.20
2007,06,20,02,21,14.20
2007,06,20,02,22,14.20
2007,06,20,02,23,14.10
2007,06,20,02,24,14.10
2007,06,20,02,25,14.10
2007,06,20,02,26,14.00
2007,06,20,02,27,14.00
2007,06,20,02,28,13.90
2007,06,20,02,29,13.90
2007,06,20,02,30,13.90
2007,06,20,02,31,13.80
2007,06,20,02,32,13.80
2007,06,20,02,33,13.70
2007,06,20,02,34,13.70
2007,06,20,02,35,13.70
2007,06,20,02,36,13.70
2007,06,20,02,37,13.60
2007,06,20,02,38,13.60
2007,06,20,02,39,13.50
2007,06,20,02,40,13.50
2007,06,20,02,41,13.40
2007,06,20,02,42,13.40
2007,06,20,02,43,13.30
2007,06,20,02,44,13.30
2007,06,20,02,45,13.30
2007,06,20,02,46,13.30
2007,06,20,02,47,13.30
2007,06,20,02,48,13.20
2007,06,20,02,49,13.20
2007,06,20,02,50,13.20
2007,06,20,02,51,13.10
2007,06,20,02,52,13.10
2007,06,20,02,53,13.10
2007,06,20,02,54,13.10
2007,06,20,02,55,13.00
2007,06,20,02,56,13.00
2007,06,20,02,57,13.00
2007,06,20,02,58,13.00
2007,06,20,02,59,12.90
2007,06,20,03,00,12.90
2007,06,20,03,01,12.90
2007,06,20,03,02,12.90
2007,06,20,03,03,12.80
2007,06,20,03,04,12.80
2007,06,20,03,05,12.80
2007,06,20,03,06,12.80
2007,06,20,03,07,12.80
2007,06,20,03,08,12.80
2007,06,20,03,09,12.80
2007,06,20,03,10,12.80
2007,06,20,03,11,12.80
2007,06,20,03,12,12.80
2007,06,20,03,13,12.80
2007,06,20,03,14,12.80
2007,06,20,03,15,12.80
2007,06,20,03,16,12.80
2007,06,20,03,17,12.80
2007,06,20,03,18,12.80
2007,06,20,03,19,12.70
2007,06,20,03,20,12.70
2007,06,20,03,21,12.70
2007,06,20,03,22,12.70
2007,06,20,03,23,12.80
2007,06,20,03,24,12.80
2007,06,20,03,25,12.80
2007,06,20,03,26,12.80
2007,06,20,03,27,12.80
2007,06,20,03,28,12.80
2007,06,20,03,29,12.70
2007,06,20,03,30,12.70
2007,06,20,03,31,12.70
2007,06,20,03,32,12.60
2007,06,20,03,33,12.60
2007,06,20,03,34,12.50
2007,06,20,03,35,12.50
2007,06,20,03,36,12.40
2007,06,20,03,37,12.40
2007,06,20,03,38,12.30
2007,06,20,03,39,12.30
2007,06,20,03,40,12.20
2007,06,20,03,41,12.20
2007,06,20,03,42,12.10
2007,06,20,03,43,12.00
2007,06,20,03,44,12.00
2007,06,20,03,45,11.90
2007,06,20,03,46,11.80
2007,06,20,03,47,11.80
2007,06,20,03,48,11.80
2007,06,20,03,49,11.70
2007,06,20,03,50,11.70
2007,06,20,03,51,11.60
2007,06,20,03,52,11.60
2007,06,20,03,53,11.60
2007,06,20,03,54,11.50
2007,06,20,03,55,11.40
2007,06,20,03,56,11.40
2007,06,20,03,57,11.40
2007,06,20,03,58,11.30
2007,06,20,03,59,11.30
2007,06,20,04,00,11.20
2007,06,20,04,01,11.20
2007,06,20,04,02,11.20
2007,06,20,04,03,11.10
2007,06,20,04,04,11.10
2007,06,20,04,05,11.10
2007,06,20,04,06,11.10
2007,06,20,04,07,11.10
2007,06,20,04,08,11.10
2007,06,20,04,09,11.00
2007,06,20,04,10,10.90
2007,06,20,04,11,10.90
2007,06,20,04,12,10.90
2007,06,20,04,13,10.90
2007,06,20,04,14,10.90
2007,06,20,04,15,10.90
2007,06,20,04,16,10.80
2007,06,20,04,17,10.80
2007,06,20,04,18,10.80
2007,06,20,04,19,10.70
2007,06,20,04,20,10.70
2007,06,20,04,21,10.60
2007,06,20,04,22,10.60
2007,06,20,04,23,10.60
2007,06,20,04,24,10.60
2007,06,20,04,25,10.60
2007,06,20,04,26,10.60
2007,06,20,04,27,10.60
2007,06,20,04,28,10.50
2007,06,20,04,29,10.40
2007,06,20,04,30,10.40
2007,06,20,04,31,10.40
2007,06,20,04,32,10.40
2007,06,20,04,33,10.40
2007,06,20,04,34,10.40
2007,06,20,04,35,10.40
2007,06,20,04,36,10.40
2007,06,20,04,37,10.30
2007,06,20,04,38,10.30
2007,06,20,04,39,10.30
2007,06,20,04,40,10.30
2007,06,20,04,41,10.20
2007,06,20,04,42,10.20
2007,06,20,04,43,10.20
2007,06,20,04,44,10.20
2007,06,20,04,45,10.10
2007,06,20,04,46,10.10
2007,06,20,04,47,10.10
2007,06,20,04,48,10.10
2007,06,20,04,49,10.10
2007,06,20,04,50,10.10
2007,06,20,04,51,10.10
2007,06,20,04,52,10.10
2007,06,20,04,53,10.10
2007,06,20,04,54,10.00
2007,06,20,04,55,9.90
2007,06,20,04,56,9.90
2007,06,20,04,57,9.90
2007,06,20,04,58,9.90
2007,06,20,04,59,9.90
2007,06,20,05,00,9.90
2007,06,20,05,01,9.90
2007,06,20,05,02,9.90
2007,06,20,05,03,9.90
2007,06,20,05,04,9.80
2007,06,20,05,05,9.80
2007,06,20,05,06,9.80
2007,06,20,05,07,9.80
2007,06,20,05,08,9.70
2007,06,20,05,09,9.70
2007,06,20,05,10,9.70
2007,06,20,05,11,9.70
2007,06,20,05,12,9.70
2007,06,20,05,13,9.70
2007,06,20,05,14,9.70
2007,06,20,05,15,9.70
2007,06,20,05,16,9.70
2007,06,20,05,17,9.70
2007,06,20,05,18,9.60
2007,06,20,05,19,9.60
2007,06,20,05,20,9.60
2007,06,20,05,21,9.60
2007,06,20,05,22,9.60
2007,06,20,05,23,9.60
2007,06,20,05,24,9.60
2007,06,20,05,25,9.60
2007,06,20,05,26,9.60
2007,06,20,05,27,9.60
2007,06,20,05,28,9.60
2007,06,20,05,29,9.60
2007,06,20,05,30,9.60
2007,06,20,05,31,9.60
2007,06,20,05,32,9.60
2007,06,20,05,33,9.50
2007,06,20,05,34,9.50
2007,06,20,05,35,9.50
2007,06,20,05,36,9.50
2007,06,20,05,37,9.50
2007,06,20,05,38,9.50
2007,06,20,05,39,9.50
2007,06,20,05,40,9.50
2007,06,20,05,41,9.50
2007,06,20,05,42,9.50
2007,06,20,05,43,9.50
2007,06,20,05,44,9.50
2007,06,20,05,45,9.50
2007,06,20,05,46,9.50
2007,06,20,05,47,9.60
2007,06,20,05,48,9.60
2007,06,20,05,49,9.60
2007,06,20,05,50,9.60
2007,06,20,05,51,9.60
2007,06,20,05,52,9.60
2007,06,20,05,53,9.60
2007,06,20,05,54,9.70
2007,06,20,05,55,9.70
2007,06,20,05,56,9.70
2007,06,20,05,57,9.70
2007,06,20,05,58,9.70
2007,06,20,05,59,9.70
2007,06,20,06,00,9.80
2007,06,20,06,01,9.80
2007,06,20,06,02,9.80
2007,06,20,06,03,9.90
2007,06,20,06,04,9.90
2007,06,20,06,05,10.00
2007,06,20,06,06,10.10
2007,06,20,06,07,10.10
2007,06,20,06,08,10.10
2007,06,20,06,09,10.20
2007,06,20,06,10,10.20
2007,06,20,06,11,10.30
2007,06,20,06,12,10.30
2007,06,20,06,13,10.40
2007,06,20,06,14,10.40
2007,06,20,06,15,10.40
2007,06,20,06,16,10.50
2007,06,20,06,17,10.60
2007,06,20,06,18,10.60
2007,06,20,06,19,10.60
2007,06,20,06,20,10.60
2007,06,20,06,21,10.70
2007,06,20,06,22,10.70
2007,06,20,06,23,10.80
2007,06,20,06,24,10.80
2007,06,20,06,25,10.90
2007,06,20,06,26,10.90
2007,06,20,06,27,10.90
2007,06,20,06,28,11.10
2007,06,20,06,29,11.10
2007,06,20,06,30,11.10
2007,06,20,06,31,11.20
2007,06,20,06,32,11.30
2007,06,20,06,33,11.30
2007,06,20,06,34,11.40
2007,06,20,06,35,11.40
2007,06,20,06,36,11.50
2007,06,20,06,37,11.60
2007,06,20,06,38,11.60
2007,06,20,06,39,11.70
2007,06,20,06,40,11.80
2007,06,20,06,41,11.80
2007,06,20,06,42,11.90
2007,06,20,06,43,12.00
2007,06,20,06,44,12.10
2007,06,20,06,45,12.10
2007,06,20,06,46,12.20
2007,06,20,06,47,12.30
2007,06,20,06,48,12.40
2007,06,20,06,49,12.40
2007,06,20,06,50,12.50
2007,06,20,06,51,12.60
2007,06,20,06,52,12.60
2007,06,20,06,53,12.70
2007,06,20,06,54,12.80
2007,06,20,06,55,12.80
2007,06,20,06,56,12.90
2007,06,20,06,57,13.00
2007,06,20,06,58,13.10
2007,06,20,06,59,13.10
2007,06,20,07,00,13.20
2007,06,20,07,01,13.30
2007,06,20,07,02,13.40
2007,06,20,07,03,13.50
2007,06,20,07,04,13.50
2007,06,20,07,05,13.60
2007,06,20,07,06,13.70
2007,06,20,07,07,13.70
2007,06,20,07,08,13.80
2007,06,20,07,09,13.90
2007,06,20,07,10,14.00
2007,06,20,07,11,14.10
2007,06,20,07,12,14.20
2007,06,20,07,13,14.30
2007,06,20,07,14,14.40
2007,06,20,07,15,14.50
2007,06,20,07,16,14.60
2007,06,20,07,17,14.70
2007,06,20,07,18,14.80
2007,06,20,07,19,14.80
2007,06,20,07,20,14.80
2007,06,20,07,21,14.80
2007,06,20,07,22,14.80
2007,06,20,07,23,14.80
2007,06,20,07,24,14.70
2007,06,20,07,25,14.60
2007,06,20,07,26,14.50
2007,06,20,07,27,14.50
2007,06,20,07,28,14.50
2007,06,20,07,29,14.50
2007,06,20,07,30,14.50
2007,06,20,07,31,14.50
2007,06,20,07,32,14.50
2007,06,20,07,33,14.50
2007,06,20,07,34,14.50
2007,06,20,07,35,14.60
2007,06,20,07,36,14.60
2007,06,20,07,37,14.60
2007,06,20,07,38,14.60
2007,06,20,07,39,14.70
2007,06,20,07,40,14.70
2007,06,20,07,41,14.70
2007,06,20,07,42,14.70
2007,06,20,07,43,14.70
2007,06,20,07,44,14.70
2007,06,20,07,45,14.70
2007,06,20,07,46,14.70
2007,06,20,07,47,14.70
2007,06,20,07,48,14.60
2007,06,20,07,49,14.60
2007,06,20,07,50,14.60
2007,06,20,07,51,14.70
2007,06,20,07,52,14.70
2007,06,20,07,53,14.70
2007,06,20,07,54,14.80
2007,06,20,07,55,14.80
2007,06,20,07,56,14.80
2007,06,20,07,57,14.80
2007,06,20,07,58,14.80
2007,06,20,07,59,14.80
2007,06,20,08,00,14.80
2007,06,20,08,01,14.90
2007,06,20,08,02,14.90
2007,06,20,08,03,15.00
2007,06,20,08,04,15.00
2007,06,20,08,05,15.00
2007,06,20,08,06,15.10
2007,06,20,08,07,15.10
2007,06,20,08,08,15.10
2007,06,20,08,09,15.20
2007,06,20,08,10,15.20
2007,06,20,08,11,15.30
2007,06,20,08,12,15.30
2007,06,20,08,13,15.30
2007,06,20,08,14,15.30
2007,06,20,08,15,15.30
2007,06,20,08,16,15.40
2007,06,20,08,17,15.40
2007,06,20,08,18,15.50
2007,06,20,08,19,15.50
2007,06,20,08,20,15.60
2007,06,20,08,21,15.60
2007,06,20,08,22,15.70
2007,06,20,08,23,15.80
2007,06,20,08,24,15.80
2007,06,20,08,25,15.90
2007,06,20,08,26,16.00
2007,06,20,08,27,16.10
2007,06,20,08,28,16.20
2007,06,20,08,29,16.30
2007,06,20,08,30,16.40
2007,06,20,08,31,16.50
2007,06,20,08,32,16.60
2007,06,20,08,33,16.70
2007,06,20,08,34,16.80
2007,06,20,08,35,16.90
2007,06,20,08,36,17.00
2007,06,20,08,37,17.10
2007,06,20,08,38,17.30
2007,06,20,08,39,17.30
2007,06,20,08,40,17.40
2007,06,20,08,41,17.50
2007,06,20,08,42,17.50
2007,06,20,08,43,17.60
2007,06,20,08,44,17.70
2007,06,20,08,45,17.70
2007,06,20,08,46,17.80
2007,06,20,08,47,17.90
2007,06,20,08,48,17.90
2007,06,20,08,49,17.90
2007,06,20,08,50,18.00
2007,06,20,08,51,18.10
2007,06,20,08,52,18.20
2007,06,20,08,53,18.20
2007,06,20,08,54,18.20
2007,06,20,08,55,18.20
2007,06,20,08,56,18.20
2007,06,20,08,57,18.20
2007,06,20,08,58,18.20
2007,06,20,08,59,18.20
2007,06,20,09,00,18.10
2007,06,20,09,01,18.20
2007,06,20,09,02,18.20
2007,06,20,09,03,18.20
2007,06,20,09,04,18.20
2007,06,20,09,05,18.20
2007,06,20,09,06,18.20
2007,06,20,09,07,18.20
2007,06,20,09,08,18.30
2007,06,20,09,09,18.30
2007,06,20,09,10,18.40
2007,06,20,09,11,18.40
2007,06,20,09,12,18.50
2007,06,20,09,13,18.50
2007,06,20,09,14,18.50
2007,06,20,09,15,18.50
2007,06,20,09,16,18.50
2007,06,20,09,17,18.50
2007,06,20,09,18,18.40
2007,06,20,09,19,18.40
2007,06,20,09,20,18.40
2007,06,20,09,21,18.40
2007,06,20,09,22,18.40
2007,06,20,09,23,18.40
2007,06,20,09,24,18.30
2007,06,20,09,25,18.30
2007,06,20,09,26,18.30
2007,06,20,09,27,18.30
2007,06,20,09,28,18.40
2007,06,20,09,29,18.40
2007,06,20,09,30,18.50
2007,06,20,09,31,18.70
2007,06,20,09,32,18.80
2007,06,20,09,33,18.90
2007,06,20,09,34,18.90
2007,06,20,09,35,19.00
2007,06,20,09,36,19.10
2007,06,20,09,37,19.20
2007,06,20,09,38,19.30
2007,06,20,09,39,19.40
2007,06,20,09,40,19.50
2007,06,20,09,41,19.60
2007,06,20,09,42,19.70
2007,06,20,09,43,19.70
2007,06,20,09,44,19.80
2007,06,20,09,45,19.80
2007,06,20,09,46,19.90
2007,06,20,09,47,19.90
2007,06,20,09,48,19.90
2007,06,20,09,49,20.00
2007,06,20,09,50,20.10
2007,06,20,09,51,20.20
2007,06,20,09,52,20.20
2007,06,20,09,53,20.30
2007,06,20,09,54,20.40
2007,06,20,09,55,20.50
2007,06,20,09,56,20.50
2007,06,20,09,57,20.60
2007,06,20,09,58,20.60
2007,06,20,09,59,20.60
2007,06,20,10,00,20.50
2007,06,20,10,01,20.50
2007,06,20,10,02,20.40
2007,06,20,10,03,20.30
2007,06,20,10,04,20.20
2007,06,20,10,05,20.20
2007,06,20,10,06,20.20
2007,06,20,10,07,20.20
2007,06,20,10,08,20.20
2007,06,20,10,09,20.20
2007,06,20,10,10,20.20
2007,06,20,10,11,20.20
2007,06,20,10,12,20.20
2007,06,20,10,13,20.20
2007,06,20,10,14,20.30
2007,06,20,10,15,20.40
2007,06,20,10,16,20.40
2007,06,20,10,17,20.40
2007,06,20,10,18,20.40
2007,06,20,10,19,20.30
2007,06,20,10,20,20.30
2007,06,20,10,21,20.20
2007,06,20,10,22,20.20
2007,06,20,10,23,20.20
2007,06,20,10,24,20.30
2007,06,20,10,25,20.30
2007,06,20,10,26,20.20
2007,06,20,10,27,20.30
2007,06,20,10,28,20.30
2007,06,20,10,29,20.40
2007,06,20,10,30,20.40
2007,06,20,10,31,20.30
2007,06,20,10,32,20.20
2007,06,20,10,33,20.20
2007,06,20,10,34,20.10
2007,06,20,10,35,20.00
2007,06,20,10,36,19.90
2007,06,20,10,37,19.80
2007,06,20,10,38,19.80
2007,06,20,10,39,19.70
2007,06,20,10,40,19.70
2007,06,20,10,41,19.70
2007,06,20,10,42,19.60
2007,06,20,10,43,19.60
2007,06,20,10,44,19.70
2007,06,20,10,45,19.70
2007,06,20,10,46,19.70
2007,06,20,10,47,19.70
2007,06,20,10,48,19.70
2007,06,20,10,49,19.70
2007,06,20,10,50,19.70
2007,06,20,10,51,19.60
2007,06,20,10,52,19.60
2007,06,20,10,53,19.50
2007,06,20,10,54,19.50
2007,06,20,10,55,19.50
2007,06,20,10,56,19.60
2007,06,20,10,57,19.60
2007,06,20,10,58,19.70
2007,06,20,10,59,19.80
2007,06,20,11,00,19.80
2007,06,20,11,01,19.80
2007,06,20,11,02,19.80
2007,06,20,11,03,19.70
2007,06,20,11,04,19.70
2007,06,20,11,05,19.70
2007,06,20,11,06,19.70
2007,06,20,11,07,19.60
2007,06,20,11,08,19.50
2007,06,20,11,09,19.50
2007,06,20,11,10,19.60
2007,06,20,11,11,19.60
2007,06,20,11,12,19.60
2007,06,20,11,13,19.70
2007,06,20,11,14,19.80
2007,06,20,11,15,19.80
2007,06,20,11,16,19.80
2007,06,20,11,17,19.80
2007,06,20,11,18,19.80
2007,06,20,11,19,19.80
2007,06,20,11,20,19.90
2007,06,20,11,21,19.90
2007,06,20,11,22,19.90
2007,06,20,11,23,19.90
2007,06,20,11,24,19.90
2007,06,20,11,25,19.90
2007,06,20,11,26,19.90
2007,06,20,11,27,19.90
2007,06,20,11,28,20.00
2007,06,20,11,29,20.10
2007,06,20,11,30,20.10
2007,06,20,11,31,20.10
2007,06,20,11,32,20.10
2007,06,20,11,33,20.10
2007,06,20,11,34,20.20
2007,06,20,11,35,20.20
2007,06,20,11,36,20.20
2007,06,20,11,37,20.20
2007,06,20,11,38,20.20
2007,06,20,11,39,20.20
2007,06,20,11,40,20.20
2007,06,20,11,41,20.20
2007,06,20,11,42,20.20
2007,06,20,11,43,20.30
2007,06,20,11,44,20.30
2007,06,20,11,45,20.30
2007,06,20,11,46,20.20
2007,06,20,11,47,20.20
2007,06,20,11,48,20.30
2007,06,20,11,49,20.40
2007,06,20,11,50,20.40
2007,06,20,11,51,20.50
2007,06,20,11,52,20.50
2007,06,20,11,53,20.50
2007,06,20,11,54,20.60
2007,06,20,11,55,20.70
2007,06,20,11,56,20.70
2007,06,20,11,57,20.90
2007,06,20,11,58,21.00
2007,06,20,11,59,21.10
2007,06,20,12,00,21.20
2007,06,20,12,01,21.30
2007,06,20,12,02,21.30
2007,06,20,12,03,21.30
2007,06,20,12,04,21.30
2007,06,20,12,05,21.20
2007,06,20,12,06,21.30
2007,06,20,12,07,21.30
2007,06,20,12,08,21.30
2007,06,20,12,09,21.50
2007,06,20,12,10,21.60
2007,06,20,12,11,21.70
2007,06,20,12,12,21.80
2007,06,20,12,13,21.90
2007,06,20,12,14,22.00
2007,06,20,12,15,22.00
2007,06,20,12,16,22.20
2007,06,20,12,17,22.20
2007,06,20,12,18,22.20
2007,06,20,12,19,22.10
2007,06,20,12,20,22.00
2007,06,20,12,21,22.00
2007,06,20,12,22,22.00
2007,06,20,12,23,22.10
2007,06,20,12,24,22.10
2007,06,20,12,25,22.10
2007,06,20,12,26,22.20
2007,06,20,12,27,22.20
2007,06,20,12,28,22.20
2007,06,20,12,29,22.10
2007,06,20,12,30,22.20
2007,06,20,12,31,22.20
2007,06,20,12,32,22.20
2007,06,20,12,33,22.20
2007,06,20,12,34,22.30
2007,06,20,12,35,22.30
2007,06,20,12,36,22.30
2007,06,20,12,37,22.40
2007,06,20,12,38,22.50
2007,06,20,12,39,22.60
2007,06,20,12,40,22.60
2007,06,20,12,41,22.60
2007,06,20,12,42,22.60
2007,06,20,12,43,22.60
2007,06,20,12,44,22.70
2007,06,20,12,45,22.70
2007,06,20,12,46,22.70
2007,06,20,12,47,22.70
2007,06,20,12,48,22.80
2007,06,20,12,49,22.60
2007,06,20,12,50,22.40
2007,06,20,12,51,22.40
2007,06,20,12,52,22.30
2007,06,20,12,53,22.30
2007,06,20,12,54,22.20
2007,06,20,12,55,22.20
2007,06,20,12,56,22.10
2007,06,20,12,57,22.20
2007,06,20,12,58,22.20
2007,06,20,12,59,22.30
2007,06,20,13,00,22.30
2007,06,20,13,01,22.50
2007,06,20,13,02,22.50
2007,06,20,13,03,22.50
2007,06,20,13,04,22.60
2007,06,20,13,05,22.50
2007,06,20,13,06,22.40
2007,06,20,13,07,22.40
2007,06,20,13,08,22.40
2007,06,20,13,09,22.50
2007,06,20,13,10,22.60
2007,06,20,13,11,22.70
2007,06,20,13,12,22.60
2007,06,20,13,13,22.50
2007,06,20,13,14,22.30
2007,06,20,13,15,22.20
2007,06,20,13,16,22.10
2007,06,20,13,17,22.10
2007,06,20,13,18,22.00
2007,06,20,13,19,22.10
2007,06,20,13,20,22.10
2007,06,20,13,21,22.20
2007,06,20,13,22,22.40
2007,06,20,13,23,22.40
2007,06,20,13,24,22.40
2007,06,20,13,25,22.50
2007,06,20,13,26,22.50
2007,06,20,13,27,22.50
2007,06,20,13,28,22.50
2007,06,20,13,29,22.60
2007,06,20,13,30,22.60
2007,06,20,13,31,22.60
2007,06,20,13,32,22.50
2007,06,20,13,33,22.40
2007,06,20,13,34,22.30
2007,06,20,13,35,22.30
2007,06,20,13,36,22.30
2007,06,20,13,37,22.30
2007,06,20,13,38,22.40
2007,06,20,13,39,22.50
2007,06,20,13,40,22.60
2007,06,20,13,41,22.60
2007,06,20,13,42,22.60
2007,06,20,13,43,22.50
2007,06,20,13,44,22.50
2007,06,20,13,45,22.60
2007,06,20,13,46,22.60
2007,06,20,13,47,22.60
2007,06,20,13,48,22.60
2007,06,20,13,49,22.70
2007,06,20,13,50,22.80
2007,06,20,13,51,22.80
2007,06,20,13,52,22.90
2007,06,20,13,53,22.70
2007,06,20,13,54,22.70
2007,06,20,13,55,22.70
2007,06,20,13,56,22.70
2007,06,20,13,57,22.70
2007,06,20,13,58,22.80
2007,06,20,13,59,22.90
2007,06,20,14,00,23.00
2007,06,20,14,01,23.10
2007,06,20,14,02,23.20
2007,06,20,14,03,23.20
2007,06,20,14,04,23.30
2007,06,20,14,05,23.30
2007,06,20,14,06,23.30
2007,06,20,14,07,23.30
2007,06,20,14,08,23.30
2007,06,20,14,09,23.30
2007,06,20,14,10,23.30
2007,06,20,14,11,23.30
2007,06,20,14,12,23.30
2007,06,20,14,13,23.30
2007,06,20,14,14,23.30
2007,06,20,14,15,23.30
2007,06,20,14,16,23.30
2007,06,20,14,17,23.40
2007,06,20,14,18,23.40
2007,06,20,14,19,23.40
2007,06,20,14,20,23.40
2007,06,20,14,21,23.30
2007,06,20,14,22,23.30
2007,06,20,14,23,23.30
2007,06,20,14,24,23.20
2007,06,20,14,25,23.30
2007,06,20,14,26,23.30
2007,06,20,14,27,23.30
2007,06,20,14,28,23.30
2007,06,20,14,29,23.30
2007,06,20,14,30,23.30
2007,06,20,14,31,23.20
2007,06,20,14,32,23.20
2007,06,20,14,33,23.10
2007,06,20,14,34,23.10
2007,06,20,14,35,23.20
2007,06,20,14,36,23.30
2007,06,20,14,37,23.20
2007,06,20,14,38,23.20
2007,06,20,14,39,23.20
2007,06,20,14,40,23.20
2007,06,20,14,41,23.20
2007,06,20,14,42,23.20
2007,06,20,14,43,23.30
2007,06,20,14,44,23.30
2007,06,20,14,45,23.20
2007,06,20,14,46,23.20
2007,06,20,14,47,23.00
2007,06,20,14,48,22.90
2007,06,20,14,49,22.90
2007,06,20,14,50,23.00
2007,06,20,14,51,23.10
2007,06,20,14,52,23.20
2007,06,20,14,53,23.10
2007,06,20,14,54,23.00
2007,06,20,14,55,22.90
2007,06,20,14,56,22.90
2007,06,20,14,57,22.90
2007,06,20,14,58,23.00
2007,06,20,14,59,23.10
2007,06,20,15,00,23.10
2007,06,20,15,01,23.10
2007,06,20,15,02,23.00
2007,06,20,15,03,22.90
2007,06,20,15,04,22.90
2007,06,20,15,05,22.90
2007,06,20,15,06,22.90
2007,06,20,15,07,22.90
2007,06,20,15,08,22.90
2007,06,20,15,09,22.90
2007,06,20,15,10,22.80
2007,06,20,15,11,22.70
2007,06,20,15,12,22.80
2007,06,20,15,13,22.90
2007,06,20,15,14,23.00
2007,06,20,15,15,23.10
2007,06,20,15,16,23.20
2007,06,20,15,17,23.30
2007,06,20,15,18,23.40
2007,06,20,15,19,23.50
2007,06,20,15,20,23.60
2007,06,20,15,21,23.60
2007,06,20,15,22,23.60
2007,06,20,15,23,23.70
2007,06,20,15,24,23.70
2007,06,20,15,25,23.70
2007,06,20,15,26,23.70
2007,06,20,15,27,23.60
2007,06,20,15,28,23.60
2007,06,20,15,29,23.60
2007,06,20,15,30,23.70
2007,06,20,15,31,23.70
2007,06,20,15,32,23.80
2007,06,20,15,33,23.90
2007,06,20,15,34,23.90
2007,06,20,15,35,24.00
2007,06,20,15,36,24.10
2007,06,20,15,37,24.10
2007,06,20,15,38,24.10
2007,06,20,15,39,24.10
2007,06,20,15,40,24.20
2007,06,20,15,41,24.10
2007,06,20,15,42,23.80
2007,06,20,15,43,23.60
2007,06,20,15,44,23.40
2007,06,20,15,45,23.30
2007,06,20,15,46,23.30
2007,06,20,15,47,23.40
2007,06,20,15,48,23.50
2007,06,20,15,49,23.60
2007,06,20,15,50,23.60
2007,06,20,15,51,23.60
2007,06,20,15,52,23.50
2007,06,20,15,53,23.40
2007,06,20,15,54,23.40
2007,06,20,15,55,23.40
2007,06,20,15,56,23.50
2007,06,20,15,57,23.60
2007,06,20,15,58,23.70
2007,06,20,15,59,23.90
2007,06,20,16,00,23.90
2007,06,20,16,01,23.90
2007,06,20,16,02,23.90
2007,06,20,16,03,23.90
2007,06,20,16,04,24.00
2007,06,20,16,05,24.10
2007,06,20,16,06,24.10
2007,06,20,16,07,24.00
2007,06,20,16,08,23.80
2007,06,20,16,09,23.70
2007,06,20,16,10,23.60
2007,06,20,16,11,23.60
2007,06,20,16,12,23.40
2007,06,20,16,13,23.40
2007,06,20,16,14,23.50
2007,06,20,16,15,23.40
2007,06,20,16,16,23.50
2007,06,20,16,17,23.40
2007,06,20,16,18,23.40
2007,06,20,16,19,23.40
2007,06,20,16,20,23.30
2007,06,20,16,21,23.30
2007,06,20,16,22,23.30
2007,06,20,16,23,23.30
2007,06,20,16,24,23.30
2007,06,20,16,25,23.30
2007,06,20,16,26,23.30
2007,06,20,16,27,23.30
2007,06,20,16,28,23.40
2007,06,20,16,29,23.40
2007,06,20,16,30,23.60
2007,06,20,16,31,23.60
2007,06,20,16,32,23.70
2007,06,20,16,33,23.70
2007,06,20,16,34,23.70
2007,06,20,16,35,23.70
2007,06,20,16,36,23.60
2007,06,20,16,37,23.60
2007,06,20,16,38,23.60
2007,06,20,16,39,23.60
2007,06,20,16,40,23.60
2007,06,20,16,41,23.50
2007,06,20,16,42,23.60
2007,06,20,16,43,23.50
2007,06,20,16,44,23.50
2007,06,20,16,45,23.60
2007,06,20,16,46,23.40
2007,06,20,16,47,23.30
2007,06,20,16,48,23.30
2007,06,20,16,49,23.30
2007,06,20,16,50,23.30
2007,06,20,16,51,23.30
2007,06,20,16,52,23.20
2007,06,20,16,53,23.20
2007,06,20,16,54,23.20
2007,06,20,16,55,23.20
2007,06,20,16,56,23.30
2007,06,20,16,57,23.30
2007,06,20,16,58,23.30
2007,06,20,16,59,23.30
2007,06,20,17,00,23.30
2007,06,20,17,01,23.30
2007,06,20,17,02,23.30
2007,06,20,17,03,23.30
2007,06,20,17,04,23.30
2007,06,20,17,05,23.30
2007,06,20,17,06,23.20
2007,06,20,17,07,23.30
2007,06,20,17,08,23.20
2007,06,20,17,09,23.10
2007,06,20,17,10,23.10
2007,06,20,17,11,23.10
2007,06,20,17,12,23.00
2007,06,20,17,13,22.90
2007,06,20,17,14,22.90
2007,06,20,17,15,22.80
2007,06,20,17,16,22.80
2007,06,20,17,17,22.80
2007,06,20,17,18,22.70
2007,06,20,17,19,22.70
2007,06,20,17,20,22.70
2007,06,20,17,21,22.70
2007,06,20,17,22,22.70